Location: Alpha Ridge Park
(39.3209°N, 76.9128°W)
Time: 17:18:36
(UTC-04:00)

S-56A Canister/Altair - Pass Details

Date: 28 May 2019
Orbit: 633 x 2499 km, 38.9° (Epoch: 16 June)

Event Time Altitude Azimuth Distance (km) Brightness Sun altitude
Rises 07:38:41 0° 281° (W) 4,448 10.9 19.7°
Reaches altitude 10° 07:41:47 10° 270° (W) 3,730 10.5 20.3°
Maximum altitude 07:50:04 30° 215° (SW) 3,040 10.4 21.9°
Drops below altitude 10° 08:00:53 10° 162° (SSE) 4,909 11.8 23.9°
Sets 08:05:47 0° 153° (SSE) 6,070 12.3 24.9°
